sat.trackr.live / text

‹ back to catalog

KUIPER-00159

NORAD 67764 · 2026-030A

PAYLOAD ACTIVE UNKNOWN

§ Identity

Operator
Country
US
Launch date
2026-02-12
Launch site
FRGUI
Launch vehicle
Mass (kg)
RCS (m²)

External: N2YO · Heavens-Above · Gunter

§ Orbital elements

Epoch: 2026-09-19T19:43:35.460480Z

Period
97.51 min
Inclination
51.9029°
Eccentricity
0.0000841
Mean motion
14.76806610 rev/d
Perigee alt
638.8 km
Apogee alt
640.0 km
Semi-major
7,017.6 km
B*
4.3058e-3
RAAN
25.8853°
Arg perigee
130.3121°
Mean anomaly
229.7914°
Rev number
3,460

§ Raw data

KUIPER-001591 67764U 26030A   26262.82193820  .00030410  00000+0  43058-2 0  99912 67764  51.9029  25.8853 0000841 130.3121 229.7914 14.76806610 34609

JSON: /api/v1/satellites/67764 · /tle

For live sub-satellite position, see the globe view (requires WebGL).

§ Visibility from observer

Set your observer location to see the next 7 days of passes ≥ 10°. The values pass through the URL so the page stays shareable.

No JS? Fill the form by hand. The geolocation button needs JavaScript.